Regional Weather Roundup
Issued by NWS Upton, NY

Current Version | Previous Version | Text Only | Print | Product List | Glossary On
Versions: 1 2 3 4 5 6 7 8 9 10 11 12 13 14 15 16 17 18 19 20 21 22 23 24 25 26 27 28 29 30 31 32 33 34 35 36 37 38 39 40 41 42 43 44 45 46 47 48 49 50
000
ASUS41 KOKX 101005
RWROKX

REGIONAL WEATHER ROUNDUP
NATIONAL WEATHER SERVICE NEW YORK NY
500 AM EST WED FEB 10 2016

NOTE: "FAIR" INDICATES FEW OR NO CLOUDS BELOW 12,000 FEET WITH NO
SIGNIFICANT WEATHER AND/OR OBSTRUCTIONS TO VISIBILITY.

NYZ071-072-176-178-NJZ106-104-101100-
NEW YORK CITY METRO AREA


CITY           SKY/WX    TMP DP  RH WIND       PRES   REMARKS
CENTRAL PARK   CLOUDY    33  27  78 W8        29.60S WCI  26
LAGUARDIA APRT CLOUDY    34  30  85 S6        29.58S WCI  29
KENNEDY INTL   DRIZZLE   34  31  88 SW7       29.61S WCI  28
NEWARK/LIBERTY CLOUDY    33  30  88 SW7       29.60R WCI  27
BRNX BOT. GARD   N/A     32  32 100 W13       29.60R WCI  22
TETERBORO      LGT SNOW  33  28  81 S7        29.58S WCI  27
$$

NYZ177-179-078>081-101100-
LONG ISLAND NEW YORK

CITY           SKY/WX    TMP DP  RH WIND       PRES   REMARKS
FARMINGDALE    CLOUDY    30  28  92 CALM      29.60R FOG
ISLIP          CLOUDY    29  25  85 CALM      29.58S FOG
SHIRLEY        LGT SNOW  28  26  92 CALM      29.60S FOG
RIVERHEAD      NOT AVBL
WESTHAMPTON    LGT SNOW  26  24  92 NW5       29.61R FOG     WCI  20
EAST HAMPTON   LGT SNOW  26  24  95 CALM      29.59S
MONTAUK POINT    N/A     29  28  96 CALM      29.61R
$$

NYZ052-065-067-101100-
HUDSON VALLEY

CITY           SKY/WX    TMP DP  RH WIND       PRES   REMARKS
WHITE PLAINS   CLOUDY    29  27  92 CALM      29.56S FOG
NEWBURGH       NOT AVBL
MONTGOMERY     CLOUDY    30  28  92 S3        29.55R FOG
POUGHKEEPSIE   CLOUDY    31  27  85 CALM      29.56R
ALBANY         FLURRIES  29  25  85 S3        29.55R
$$

NJZ001-105-106-008-010-013-015-019>022-104-101100-
NEW JERSEY

CITY           SKY/WX    TMP DP  RH WIND       PRES   REMARKS
NEWARK/LIBERTY CLOUDY    33  30  88 SW7       29.60R WCI  27
TETERBORO      LGT SNOW  33  28  81 S7        29.58S WCI  27
CALDWELL       CLOUDY    32  28  85 SW3       29.59R FOG
MORRISTOWN     CLOUDY    32  28  86 CALM      29.59R FOG
SOMERVILLE     CLOUDY    31  28  89 CALM      29.58S FOG
SUSSEX         LGT SNOW  31  27  85 SW6       29.55R FOG     WCI  25
ANDOVER          N/A     30  27  88 SW3       29.56R
TRENTON        CLOUDY    31  28  89 W7        29.60R FOG     WCI  24
MILLVILLE      CLOUDY    31  27  85 W10       29.66R WCI  22
ATLANTIC CITY  CLOUDY    33  29  85 W8        29.63R WCI  26
WRIGHTSTOWN    CLOUDY    31  31 100 W8        29.59R WCI  24
TOMS RIVER     CLOUDY    32  28  86 W5        29.62R WCI  27
BELMAR         CLOUDY    32  25  74 W3        29.60R
$$

PAZ047>061-062-071-101100-
EASTERN PENNSYLVANIA

CITY           SKY/WX    TMP DP  RH WIND       PRES   REMARKS
PHILADELPHIA   LGT SNOW  32  26  78 W12       29.65R WCI  23
ALLENTOWN      LGT SNOW  31  27  85 SW9       29.59R FOG     WCI  23
SCRANTON       LGT SNOW  29  27  92 SW5       29.55R FOG     WCI  24
$$

CTZ002-004>006-009-010-012-RIZ004-006-007-MAZ004-011-015-101100-
SOUTHERN NEW ENGLAND
 IN CT

CITY           SKY/WX    TMP DP  RH WIND       PRES   REMARKS
BRADLEY INTL   LGT SNOW  25  22  88 S5        29.57R FOG     WCI  19
HARTFORD       LGT SNOW  27  23  85 S5        29.59S FOG     WCI  22
DANBURY        LGT SNOW  28  23  81 CALM      29.58R
WTRBRY/OXFORD  CLOUDY    28  18  64 SW3       29.57R
BRIDGEPORT     LGT SNOW  31  28  89 SW5       29.59S FOG     WCI  26
MERIDEN        LGT SNOW  26  22  84 CALM      29.59R FOG
NEW HAVEN      LGT SNOW  27  25  92 CALM      29.59S FOG
CHESTER        LGT SNOW  28  27  93 CALM      29.58S
GROTON         CLOUDY    25  23  92 N3        29.60R
WILLIMANTIC    LGT SNOW  19  15  84 CALM      29.60R FOG

 IN RI

CITY           SKY/WX    TMP DP  RH WIND       PRES   REMARKS
PROVIDENCE     CLOUDY    24  20  84 CALM      29.62R
BLOCK ISLAND   CLOUDY    30  28  93 CALM      29.59R
WESTERLY       CLOUDY    24  21  88 CALM      29.61R

 IN MA

CITY           SKY/WX    TMP DP  RH WIND       PRES   REMARKS
BOSTON         PTCLDY    25  20  81 S7        29.61R WCI  17
WORCESTER      CLOUDY    20  17  88 SW7       29.53R WCI  11
WESTFIELD      LGT SNOW  20  17  88 CALM      29.57R FOG
PROVINCETOWN   CLOUDY    22  17  81 CALM      29.62R
NANTUCKET      CLOUDY    30  26  85 NE5       29.60S WCI  25
$$

ANZ330-335-338-340-345-350-353-355-101100-
COASTAL MARINE OBSERVATIONS


STATION/POSITION TIME  SKY/WX   TEMP    WIND        PRES    VSBY  WAVE
                                AIR SEA DIR/SP/G                  HT/PER
                 (UTC)          (F)     (DEG/KT/KT) (MB)    (MI)  (FT/S)
NY HARB ENTRANCE 0850            34 43  170/  2/  2 1001.9          4/14
4S FIRE IS       NOT AVBL
20S FIRE ISLAND  0850            35 44  350/  4/  6 1001.8          4/11
GREAT SOUTH BAY  NOT AVBL
23SW MTP         0950            35 45  160/  4/  6 1001.7          5/13
HUDSON CANYON    0850            39 49              1001.0          5/13
KINGS POINT      0900            31 39  190/  3/  4 1001.6
EXECUTION ROCKS  NOT AVBL
CENTRAL LI SOUND 0900            33     210/  6/  8   N/A           0
EASTERN LI SOUND 0900            32 42   20/  4/  6   N/A
ROBBINS REEF     0900            33     200/  6/  8 1001.2
$$


>>>>>>>>>>>>>>>>>>>>>>>>>>>> KEY <<<<<<<<<<<<<<<<<<<<<<<<<<<
>                                                          <
>     SKY/WX - SKY CONDITION/PRESENT WEATHER               <
>     TMP    - TEMPERATURE IN FAHRENHEIT                   <
>     DP     - DEWPOINT IN FAHRENHEIT                      <
>     RH     - RELATIVE HUMIDITY IN PERCENT                <
>     WIND   - DIRECTION AND SPEED IN MPH                  <
>     PRES   - MEAN SEA LEVEL PRESSURE IN INCHES OF HG     <
>     WCI    - WIND CHILL INDEX                            <
>     VSB    - VISIBILITY IN MILES                         <
>     HX     - HEAT INDEX                                  <
>     TC     - TEMPERATURE IN CELSIUS                      <
>     VRB    - VARIABLE WIND DIRECTION                     <
>                                                          <
>>>>>>>>>>>>>>>>>>>>>>>>>>>> KEY <<<<<<<<<<<<<<<<<<<<<<<<<<<





USA.gov is the U.S. government's official web portal to all federal, state and local government web resources and services.